Date String (YYYY-MM-DD hh:mm:ss) UTC,Instrument flags,absolute air pressure of the measurement (hPa),sample flow rate (lpm),inlet stack bypass flow (lpm),air temperature of the measurement (°C),ambient temperature measured by the external sensor (°C),aerosol sample conditioner tube jacket temperature (°C),OPC LED temperature (°C),internal box temperature (°C),relative humidity of the measurement (%),span deviation,mass concentration of particles derived from Lorenz-Mie calculation of OPC scattering (μg/m³),mass concentration of particles derived from Lorenz-Mie calculation of OPC scattering (μg/m³),mass concentration of particles derived from Lorenz-Mie calculation of OPC scattering (μg/m³)
DateTimeUTC,F1_M11,P_M11,Q1_M11,Q2_M11,T1_M11,T2_M11,T3_M11,T4_M11,T5_M11,U1_M11,ZSPAN_M11,X2_M11,X0_M11,X1_M11
2023-10-24 14:00:00,SystemResetWarning,0826.2,5.00,000.00,027.6,026.1,000.0,036.1,029.2,19.8,0000.0,0005.26,0017.50,0003.84
2023-10-24 14:01:00,SystemResetWarning,0826.2,5.00,000.00,027.6,026.1,000.0,036.1,029.1,20.2,0000.0,0005.20,0017.11,0003.84
2023-10-24 14:02:00,SystemResetWarning,0826.2,5.00,000.00,027.6,026.1,000.0,036.1,029.2,20.1,0000.0,0005.23,0016.88,0003.85
2023-10-24 14:03:00,SystemResetWarning,0826.2,5.00,000.00,027.6,026.1,000.0,036.1,029.2,20.0,0000.0,0005.25,0016.71,0003.87
2023-10-24 14:04:00,SystemResetWarning,0826.1,5.00,000.00,027.6,026.1,000.0,036.1,029.2,19.8,0000.0,0005.24,0015.98,0003.88
2023-10-24 14:05:00,SystemResetWarning,0826.1,5.00,000.00,027.6,026.1,000.0,036.1,029.1,19.5,0000.0,0005.24,0015.74,0003.89
2023-10-24 14:06:00,SystemResetWarning,0826.2,5.00,000.00,027.5,026.1,000.0,036.1,029.1,19.4,0000.0,0005.21,0015.47,0003.91
2023-10-24 14:07:00,SystemResetWarning,0826.1,5.00,000.00,027.5,026.1,000.0,036.1,029.1,19.1,0000.0,0005.15,0015.10,0003.91
2023-10-24 14:08:00,SystemResetWarning,0826.1,5.00,000.00,027.5,026.1,000.0,036.1,029.1,19.1,0000.0,0005.16,0015.35,0003.91
2023-10-24 14:09:00,SystemResetWarning,0826.1,5.00,000.00,027.5,026.1,000.0,036.1,029.2,19.3,0000.0,0005.14,0015.61,0003.91
2023-10-24 14:10:00,SystemResetWarning,0826.1,5.00,000.00,027.6,026.1,000.0,036.1,029.2,19.4,0000.0,0005.18,0015.36,0003.91
2023-10-24 14:11:00,SystemResetWarning,0826.1,5.01,000.00,027.6,026.1,000.0,036.1,029.2,19.4,0000.0,0005.20,0014.04,0003.91
2023-10-24 14:12:00,SystemResetWarning,0826.1,5.01,000.00,027.6,026.1,000.0,036.1,029.2,19.5,0000.0,0005.20,0014.12,0003.92
2023-10-24 14:13:00,SystemResetWarning,0826.1,5.01,000.00,027.6,026.1,000.0,036.0,029.2,19.8,0000.0,0005.25,0014.49,0003.93
2023-10-24 14:14:00,SystemResetWarning,0826.2,5.00,000.00,027.6,026.1,000.0,036.0,029.2,19.9,0000.0,0005.27,0014.22,0003.94
2023-10-24 14:15:00,SystemResetWarning,0826.2,5.00,000.00,027.6,026.2,000.0,036.0,029.2,20.0,0000.0,0005.30,0013.91,0003.96
2023-10-24 14:16:00,SystemResetWarning,0826.2,5.00,000.00,027.6,026.2,000.0,036.1,029.2,19.9,0000.0,0005.31,0013.76,0003.96
2023-10-24 14:17:00,SystemResetWarning,0826.2,4.99,000.00,027.6,026.2,000.0,036.1,029.3,19.9,0000.0,0005.27,0013.74,0003.96
2023-10-24 14:18:00,SystemResetWarning,0826.2,5.00,000.00,027.6,026.2,000.0,036.1,029.3,19.8,0000.0,0005.27,0014.10,0003.97
2023-10-24 14:19:00,SystemResetWarning,0826.2,5.00,000.00,027.6,026.2,000.0,036.1,029.3,19.8,0000.0,0005.26,0013.98,0003.97
2023-10-24 14:20:00,SystemResetWarning,0826.2,5.00,000.00,027.6,026.2,000.0,036.1,029.3,19.8,0000.0,0005.32,0013.16,0003.99
2023-10-24 14:21:00,SystemResetWarning,0826.2,5.00,000.00,027.6,026.2,000.0,036.1,029.3,19.7,0000.0,0005.37,0012.69,0004.00
2023-10-24 14:22:00,SystemResetWarning,0826.2,5.01,000.00,027.6,026.2,000.0,036.1,029.3,19.6,0000.0,0005.34,0012.69,0004.00
2023-10-24 14:23:00,SystemResetWarning,0826.2,5.00,000.00,027.7,026.2,000.0,036.1,029.3,19.6,0000.0,0005.42,0012.95,0004.01
2023-10-24 14:24:00,SystemResetWarning,0826.3,5.01,000.00,027.7,026.3,000.0,036.1,029.3,19.6,0000.0,0005.38,0013.07,0004.00
2023-10-24 14:25:00,SystemResetWarning,0826.3,5.01,000.00,027.7,026.3,000.0,036.1,029.4,19.6,0000.0,0005.36,0012.81,0003.99
2023-10-24 14:26:00,SystemResetWarning,0826.3,5.00,000.00,027.7,026.3,000.0,036.1,029.4,19.6,0000.0,0005.35,0012.94,0003.98
2023-10-24 14:27:00,SystemResetWarning,0826.3,5.00,000.00,027.7,026.3,000.0,036.1,029.4,19.6,0000.0,0005.38,0013.40,0003.98
2023-10-24 14:28:00,SystemResetWarning,0826.3,5.00,000.00,027.7,026.3,000.0,036.1,029.4,19.6,0000.0,0005.39,0014.44,0003.98
2023-10-24 14:29:00,SystemResetWarning,0826.4,5.00,000.00,027.7,026.3,000.0,036.1,029.4,19.5,0000.0,0005.49,0014.74,0003.99
2023-10-24 14:30:00,SystemResetWarning,0826.4,5.00,000.00,027.7,026.3,000.0,036.1,029.5,19.5,0000.0,0005.51,0016.04,0003.98
2023-10-24 14:31:00,SystemResetWarning,0826.4,5.00,000.00,027.8,026.3,000.0,036.1,029.5,19.4,0000.0,0005.48,0017.78,0003.96
2023-10-24 14:32:00,SystemResetWarning,0826.4,5.00,000.00,027.8,026.4,000.0,036.1,029.5,19.4,0000.0,0005.46,0018.24,0003.95
2023-10-24 14:33:00,SystemResetWarning,0826.5,5.00,000.00,027.8,026.4,000.0,036.1,029.5,19.4,0000.0,0005.48,0019.49,0003.93
2023-10-24 14:34:00,SystemResetWarning,0826.5,5.00,000.00,027.8,026.4,000.0,036.2,029.5,19.3,0000.0,0005.47,0020.82,0003.92
2023-10-24 14:35:00,SystemResetWarning,0826.5,5.00,000.00,027.8,026.4,000.0,036.2,029.5,19.3,0000.0,0005.52,0020.99,0003.91
2023-10-24 14:36:00,SystemResetWarning,0826.5,5.00,000.00,027.8,026.4,000.0,036.2,029.5,19.3,0000.0,0005.54,0021.90,0003.89
2023-10-24 14:37:00,SystemResetWarning,0826.6,5.00,000.00,027.8,026.5,000.0,036.2,029.6,19.4,0000.0,0005.56,0022.52,0003.88
2023-10-24 14:38:00,SystemResetWarning,0826.6,5.00,000.00,027.8,026.5,000.0,036.2,029.6,19.4,0000.0,0005.63,0022.31,0003.87
2023-10-24 14:39:00,SystemResetWarning,0826.6,5.00,000.00,027.8,026.5,000.0,036.2,029.6,19.4,0000.0,0005.69,0021.48,0003.87
2023-10-24 14:40:00,SystemResetWarning,0826.6,5.00,000.00,027.9,026.5,000.0,036.2,029.6,19.3,0000.0,0005.72,0021.38,0003.84
2023-10-24 14:41:00,SystemResetWarning,0826.6,5.00,000.00,027.9,026.5,000.0,036.2,029.6,19.2,0000.0,0005.74,0020.49,0003.84
2023-10-24 14:42:00,SystemResetWarning,0826.6,5.00,000.00,027.9,026.5,000.0,036.2,029.6,19.2,0000.0,0005.77,0019.49,0003.83
2023-10-24 14:43:00,SystemResetWarning,0826.6,5.00,000.00,027.9,026.5,000.0,036.2,029.6,19.1,0000.0,0005.79,0018.95,0003.83
2023-10-24 14:44:00,SystemResetWarning,0826.6,5.00,000.00,027.9,026.6,000.0,036.2,029.6,19.1,0000.0,0005.74,0018.48,0003.83
2023-10-24 14:45:00,SystemResetWarning,0826.6,5.00,000.00,027.9,026.6,000.0,036.2,029.6,19.1,0000.0,0005.73,0017.87,0003.82
2023-10-24 14:46:00,SystemResetWarning,0826.6,5.00,000.00,027.9,026.6,000.0,036.3,029.7,19.3,0000.0,0005.73,0018.09,0003.81
2023-10-24 14:47:00,SystemResetWarning,0826.6,5.00,000.00,027.9,026.6,000.0,036.3,029.7,19.2,0000.0,0005.75,0018.53,0003.81
2023-10-24 14:48:00,SystemResetWarning,0826.6,5.00,000.00,027.9,026.6,000.0,036.3,029.7,19.2,0000.0,0005.74,0018.95,0003.82
2023-10-24 14:49:00,SystemResetWarning,0826.6,5.00,000.00,028.0,026.6,000.0,036.3,029.7,19.2,0000.0,0005.69,0018.97,0003.82
2023-10-24 14:50:00,SystemResetWarning,0826.6,5.00,000.00,028.0,026.6,000.0,036.3,029.7,19.2,0000.0,0005.63,0019.05,0003.81
2023-10-24 14:51:00,SystemResetWarning,0826.6,5.00,000.00,028.0,026.6,000.0,036.3,029.7,19.2,0000.0,0005.55,0019.45,0003.80
2023-10-24 14:52:00,SystemResetWarning,0826.6,5.00,000.00,028.0,026.6,000.0,036.4,029.7,19.2,0000.0,0005.50,0019.36,0003.80
2023-10-24 14:53:00,SystemResetWarning,0826.6,5.01,000.00,028.0,026.7,000.0,036.4,029.7,19.5,0000.0,0005.48,0019.31,0003.81
2023-10-24 14:54:00,SystemResetWarning,0826.6,5.00,000.00,028.0,026.7,000.0,036.4,029.7,19.6,0000.0,0005.52,0019.60,0003.81
2023-10-24 14:55:00,SystemResetWarning,0826.6,5.00,000.00,028.0,026.7,000.0,036.4,029.8,19.6,0000.0,0005.63,0019.04,0003.83
2023-10-24 14:56:00,SystemResetWarning,0826.6,5.00,000.00,028.0,026.7,000.0,036.4,029.8,19.5,0000.0,0005.66,0019.94,0003.83
2023-10-24 14:57:00,SystemResetWarning,0826.6,5.00,000.00,028.0,026.7,000.0,036.4,029.8,19.6,0000.0,0005.65,0020.19,0003.84
2023-10-24 14:58:00,SystemResetWarning,0826.6,5.00,000.00,028.1,026.7,000.0,036.4,029.8,19.6,0000.0,0005.67,0020.02,0003.85
2023-10-24 14:59:00,SystemResetWarning,0826.6,5.00,000.00,028.1,026.7,000.0,036.4,029.8,19.6,0000.0,0005.66,0019.67,0003.85
